Flight Track Log - Related Links

Times and Time Zones

All times are in EDT time to prevent confusion due to time zone crossing. See the N448AM flight status page for this flight to view local times or setup timezone preferences in your user account.

Time Position Orientation Groundspeed Altitude Reporting Facility
EDT Latitude Longitude Course Direction KTS MPH feet Rate Location/Type
Tue 03:57:52 PM 25.9369 -79.9579 246° West  Level FlightAware Approximate
Tue 03:58:39 PM 25.8017 -80.3000 24° Northeast 126 145 800  Level Miami Center
Tue 04:03:39 PM 25.9878 -80.2083 78° East 209 241 7,000 1,213 Climbing Miami Center
Tue 04:04:45 PM 26.0019 -80.1347 78° East 216 249 8,200 1,083 Climbing Miami Center
Tue 04:05:52 PM 26.0161 -80.0633 78° East 218 251 9,400 976 Climbing Miami Center
Tue 04:06:48 PM 26.0278 -80.0014 77° East 219 252 10,200 839 Climbing Miami Center
Tue 04:07:25 PM 26.0372 -79.9553 83° East 230 265 10,700 495 Climbing Miami Center
Tue 04:08:25 PM 26.0450 -79.8814 80° East 236 272 11,000 100 Climbing Miami Center
Tue 04:09:25 PM 26.0569 -79.8056 92° East 241 277 10,900 -50 Descending Miami Center
Tue 04:10:25 PM 26.0542 -79.7314 68° East 236 272 10,900  Level Miami Center
Tue 04:11:25 PM 26.0786 -79.6625 61° Northeast 236 272 10,900 -300 Level Miami Center
Tue 04:12:25 PM 26.1133 -79.5939 61° Northeast 236 272 10,300 -967 Descending Miami Center
Tue 04:14:25 PM 26.1783 -79.4636 61° Northeast 241 277 8,000 -1,200 Descending Miami Center
Tue 04:15:25 PM 26.2086 -79.4017 48° Northeast 235 270 6,700 -1,400 Descending Miami Center
Tue 04:16:25 PM 26.2514 -79.3494 59° Northeast 229 264 5,200 -1,350 Descending Miami Center
Tue 04:17:25 PM 26.2836 -79.2897 61° Northeast 229 264 4,000 -600 Descending Miami Center
Tue 04:18:25 PM 26.3161 -79.2233 64° Northeast 223 257 4,000  Level Miami Center
Tue 04:19:25 PM 26.3486 -79.1497 62° Northeast 243 280 4,000  Level Miami Center
Tue 04:20:25 PM 26.3811 -79.0808 63° Northeast 250 288 4,000 -200 Level Miami Center
Tue 04:21:25 PM 26.4111 -79.0164 63° Northeast 255 293 3,600 -400 Descending Miami Center

Login

Don't have an account? Register now (free) for customized features, flight alerts, and more!